GFSSW_700_temp_000.txt.gz
Temp
7 7 7 7 7 7 7 7 6 6 5 5 5 5 5 5 5 5 5 5 5 5 5 5 5 5 5 6 6 7 7 7 6 7 6 6 6 6 6 6 6 6 6 6 6
7 7 7 7 7 7 7 7 7 6 6 5 6 5 5 5 5 5 5 5 5 5 5 4 5 5 5 5 6 6 7 6 5 6 6 5 5 6 6 6 6 6 6 5 5
7 7 7 7 7 7 7 7 6 6 6 6 5 6 6 5 5 5 4 4 4 5 5 5 5 5 5 5 5 5 6 5 5 5 5 5 5 5 5 5 5 5 5 5 5
7 7 7 7 7 7 7 7 6 6 6 7 7 6 5 5 5 4 5 5 5 5 5 5 5 5 5 5 5 5 5 5 5 5 5 5 5 5 5 5 5 5 5 5 5
7 7 7 7 7 7 7 7 7 7 7 7 6 6 5 5 5 4 5 5 5 5 5 5 5 5 5 5 4 4 5 5 5 5 5 4 4 4 5 4 4 4 4 4 4
7 7 7 7 7 7 7 7 7 7 7 6 6 5 5 6 4 4 4 4 5 5 5 5 5 5 5 5 5 5 5 4 4 4 4 4 4 5 5 5 5 4 4 4 4
6 6 6 6 6 6 7 6 7 7 6 6 6 6 5 6 4 4 4 4 4 5 5 5 5 5 5 5 5 5 4 4 4 4 4 5 5 5 5 5 5 4 4 3 3
6 6 6 6 6 6 7 7 7 6 6 6 6 6 6 4 4 4 4 4 5 5 5 5 6 6 6 6 5 4 4 6 4 5 5 6 7 5 5 5 5 5 4 4 4
6 5 5 5 6 6 7 7 7 7 7 6 6 6 6 5 5 5 5 5 5 5 6 6 5 6 6 5 5 5 6 5 5 6 6 5 6 5 5 6 6 5 5 5 5
6 6 5 5 6 6 7 7 7 7 7 6 6 6 6 6 5 5 5 5 5 5 5 6 6 5 5 6 6 5 5 4 4 4 4 4 6 6 5 6 7 7 6 5 5
6 6 6 6 5 6 6 6 6 6 6 7 6 6 6 6 6 6 6 6 6 5 5 6 5 5 4 6 5 4 4 5 5 4 5 4 7 7 6 7 7 7 6 6 5
6 6 6 6 6 6 6 6 6 6 6 6 6 6 6 6 6 6 6 6 6 5 6 5 5 6 5 5 5 4 4 5 4 3 2 5 8 7 7 7 6 6 6 5 5
6 6 6 6 6 6 6 6 6 6 6 5 5 6 6 6 6 6 6 6 6 6 5 5 5 5 5 4 5 4 4 4 3 5 4 6 8 7 6 6 6 6 5 5 5
6 6 6 6 6 6 6 6 6 6 5 5 5 5 5 6 5 6 6 6 5 6 5 5 5 5 5 4 4 4 4 4 3 3 6 4 8 7 7 5 5 4 4 4 4
5 5 6 6 6 6 6 6 6 6 6 4 5 5 5 5 5 5 5 5 5 5 5 4 5 5 4 4 4 3 3 4 3 1 2 3 4 7 6 6 4 4 4 3 3
5 5 5 6 6 6 6 5 5 5 5 4 4 4 4 4 4 5 5 5 5 5 5 5 5 4 4 4 3 3 4 3 3 2 4 4 4 8 6 4 4 3 3 2 2
5 5 5 5 5 6 6 5 5 5 4 3 3 4 4 4 4 4 4 5 4 4 4 4 4 4 3 2 2 2 3 5 5 6 7 3 3 6 5 4 3 2 2 1 1
4 4 4 5 5 5 5 5 4 4 4 4 4 4 4 4 4 4 4 3 4 3 2 3 5 3 3 2 1 1 2 3 2 5 5 4 4 7 5 4 3 2 2 1 0
4 4 4 4 5 5 4 4 4 4 4 3 3 2 3 3 3 3 3 3 2 2 2 1 3 3 2 2 2 1 2 1 0 -0 -0 4 4 5 5 4 3 2 2 0 0
4 4 4 4 4 4 4 4 4 4 3 3 2 3 2 2 2 3 2 2 1 2 2 -0 1 2 2 2 1 1 0 1 1 1 2 5 5 5 5 4 3 2 1 0 -1
4 4 4 4 4 4 4 4 3 3 3 3 2 2 2 2 2 2 1 1 1 1 1 0 -1 1 2 2 1 0 0 -0 -0 0 2 2 4 4 4 3 3 2 1 -0 -2
3 4 4 3 3 4 4 3 3 3 2 2 2 2 2 2 2 2 1 1 0 -0 -1 -0 -1 -1 0 1 2 2 -0 -0 0 2 0 -1 -0 3 4 4 3 1 -0 -1 -2
3 3 3 3 3 3 3 3 2 2 2 1 1 1 1 1 1 0 -0 -0 -1 -1 -2 -2 -2 -1 2 2 2 1 -0 -1 -1 -2 -2 -2 1 4 3 2 2 0 -0 -1 -2
2 2 3 3 3 3 2 2 2 1 1 1 1 0 0 -0 -0 -0 -0 -1 -1 -1 -1 -1 -2 -2 0 1 1 -0 -1 -1 -2 -2 -2 -1 1 5 5 3 1 -0 -1 -1 -2
1 2 2 2 2 2 2 2 1 1 0 -0 -0 -1 -1 -1 -1 -0 -0 -0 1 0 -0 -2 -2 -2 -2 -2 -2 -2 -2 0 -2 -1 -3 4 0 3 3 1 -1 -1 -1 -2 -2
1 1 1 1 1 1 1 1 1 0 0 -0 -1 -1 -1 -1 -2 -2 -1 -1 0 -0 -1 -3 -3 -3 -3 -2 -3 -3 -1 2 -2 -2 -2 -1 -0 3 -0 -1 -1 -2 -2 -3 -3
0 0 0 -0 -0 -0 -0 -0 -0 -0 -0 -1 -1 -1 -1 -1 -1 -1 -1 -1 -0 -0 -1 -3 -3 -3 -3 -3 -3 -3 3 2 2 -0 -0 -1 1 -1 -1 -2 -2 -2 -4 -4 -3

GFSSW_700_temp_003.txt.gz
Temp
7 7 7 7 7 8 8 7 7 6 6 5 5 5 5 5 5 6 6 6 6 6 6 6 6 5 6 7 7 8 10 10 9 9 8 7 8 6 7 6 7 7 7 6 6
7 7 7 8 8 8 7 7 7 6 5 5 5 5 5 5 4 5 6 5 5 6 6 6 6 6 7 7 7 9 10 8 7 7 8 8 7 7 7 6 6 6 6 6 6
7 8 8 8 7 7 7 7 6 6 6 6 6 5 5 5 4 5 5 5 5 6 6 5 6 7 7 7 7 8 8 7 7 6 6 7 7 6 7 7 7 6 5 6 5
7 7 7 7 7 7 7 7 7 7 7 7 6 6 5 5 5 5 5 5 5 5 5 5 6 7 7 7 7 7 6 6 6 5 6 6 6 6 6 7 6 5 4 5 5
7 7 7 7 7 7 7 7 7 7 6 6 6 6 5 4 5 5 6 6 5 5 5 5 6 7 7 7 7 7 6 6 5 5 5 5 6 5 6 5 5 5 5 5 4
6 6 6 6 6 6 7 7 7 7 7 6 6 6 4 6 5 6 6 5 5 5 5 5 5 6 6 6 7 6 6 6 6 6 6 5 6 6 6 6 5 5 5 4 4
6 6 6 6 6 6 7 7 7 7 7 6 6 6 6 7 7 5 6 6 6 5 5 6 6 5 5 6 6 6 7 6 6 6 6 6 7 6 7 6 6 6 6 5 4
6 5 5 5 6 6 7 7 7 7 7 6 6 6 7 7 6 6 5 6 6 6 6 7 7 7 5 7 6 7 7 9 8 6 6 6 8 8 7 5 5 5 4 5 5
5 5 5 5 6 6 7 7 7 7 7 7 7 5 6 7 6 7 7 7 7 7 7 7 7 6 7 7 8 9 9 8 8 7 6 6 7 8 7 7 6 5 5 5 4
5 5 5 5 5 6 6 7 7 7 7 7 7 6 7 7 7 7 7 7 7 6 5 5 6 8 8 8 9 8 8 8 8 8 6 6 7 8 8 8 7 7 6 5 5
5 5 5 6 5 6 6 6 7 6 7 8 7 7 7 7 7 7 7 7 6 5 6 6 8 7 6 5 5 6 7 8 8 6 6 6 7 8 8 8 7 6 5 5 5
5 5 5 6 6 6 6 5 6 7 7 7 7 7 7 7 5 7 7 5 5 6 6 7 7 6 7 5 6 7 7 8 7 7 6 7 8 8 7 7 6 5 5 5 5
6 6 6 6 6 6 6 6 6 6 5 7 7 7 7 7 7 7 7 7 6 6 6 7 5 6 5 6 5 7 6 6 6 6 7 7 10 9 7 7 6 5 5 4 5
6 6 6 6 6 6 6 6 6 6 6 4 5 6 6 7 6 7 7 7 5 5 5 6 5 6 5 6 4 7 6 4 5 5 8 7 10 10 8 7 6 5 4 3 4
5 6 6 6 6 6 6 6 6 6 7 5 4 6 6 6 5 5 7 7 5 5 6 6 5 5 6 4 5 5 6 4 5 5 6 7 8 11 8 8 7 5 4 3 5
5 5 6 6 6 6 6 5 6 5 7 4 5 4 4 5 5 5 6 6 6 5 5 5 6 5 4 5 5 5 5 7 6 5 7 8 7 9 9 7 6 5 4 3 3
5 5 5 6 6 6 5 5 4 6 5 4 4 4 4 4 4 5 4 5 5 6 6 6 4 3 4 4 4 4 5 7 8 8 9 7 6 8 8 6 5 4 3 2 1
5 5 5 5 5 6 5 4 5 4 4 5 4 4 4 4 4 3 4 5 3 4 5 6 6 4 3 3 2 3 3 5 4 7 7 6 7 8 7 5 4 3 2 1 1
4 4 4 5 5 5 5 4 4 4 3 3 3 4 4 3 4 4 3 3 2 2 3 4 6 3 3 3 3 4 4 3 2 3 2 5 7 7 7 6 4 3 3 2 1
4 4 4 4 5 4 4 4 3 4 4 4 4 3 4 3 4 4 3 2 1 2 2 1 2 3 2 2 2 2 2 3 2 2 4 7 7 7 7 7 5 4 3 1 0
4 3 4 4 4 4 3 3 4 4 4 3 3 3 2 2 2 3 2 1 1 1 1 1 0 2 2 3 3 3 3 2 3 3 3 4 6 6 5 4 4 3 2 1 1
3 2 4 4 3 4 3 3 4 3 3 3 2 1 1 1 2 2 2 1 2 1 1 -0 -0 0 2 3 3 2 2 3 2 3 3 2 2 4 4 4 3 2 2 1 -0
3 3 3 3 3 3 3 3 3 2 2 1 1 2 2 1 1 1 0 1 1 0 -0 -0 -0 0 4 3 2 3 3 3 2 1 0 -0 2 5 4 3 3 2 1 0 -1
2 3 3 3 3 2 2 2 3 3 2 2 2 1 0 0 0 0 0 -0 0 0 -0 -1 -1 -0 1 2 2 1 2 3 2 1 1 1 2 2 2 2 2 1 0 -0 -1
2 2 2 2 2 2 2 2 1 1 2 1 0 1 -0 0 0 -0 -0 -0 -1 -1 -0 -1 -1 -1 -0 0 0 1 1 1 1 1 1 2 2 2 2 2 1 -0 -1 -2 -3
1 2 2 2 2 2 1 1 0 1 1 -0 0 -0 -1 -1 -0 -0 -1 -1 -1 -1 -2 -2 -2 -2 -2 -2 -1 -0 -0 0 0 1 1 1 2 2 1 0 -1 -2 -2 -3 -4
1 1 1 1 1 1 1 -0 -0 0 0 0 -1 -1 -1 -1 -1 -1 -1 -1 -0 -1 -1 -1 -2 -2 -3 -2 -2 -2 1 2 1 1 2 1 1 1 -0 -1 -3 -3 -3 -4 -4

GFSSW_700_temp_006.txt.gz
Temp
7 7 7 7 7 7 7 8 7 7 6 6 5 5 5 6 6 6 6 6 6 6 6 6 6 7 8 8 8 9 10 11 10 10 9 8 8 8 7 7 7 8 6 6 6
6 7 7 7 8 8 8 7 7 6 6 5 5 5 5 5 5 6 6 6 7 7 6 6 7 8 8 8 9 9 10 9 8 8 9 9 8 8 7 8 7 7 7 7 7
7 7 7 7 8 8 7 7 7 6 6 6 5 5 5 5 5 6 6 6 6 6 7 6 7 8 8 8 8 8 9 8 8 7 7 8 8 7 7 8 8 7 6 6 6
7 7 7 8 7 7 7 7 6 6 6 6 5 5 5 5 5 6 6 6 6 6 6 6 7 8 8 8 8 8 7 7 7 6 6 7 7 7 7 7 7 7 6 5 5
7 7 7 7 7 7 7 6 6 6 6 7 6 6 5 5 6 6 6 6 6 5 6 6 7 8 8 8 8 8 7 7 7 6 7 7 7 7 7 7 7 6 6 5 5
7 7 6 6 6 6 6 6 6 6 7 7 6 5 5 6 5 6 6 4 5 6 6 6 6 7 7 7 7 7 7 7 7 7 7 7 7 7 7 7 7 6 7 6 5
6 6 6 6 6 6 6 6 6 7 6 7 7 6 6 7 6 4 6 7 6 7 8 8 8 6 7 7 8 7 7 8 8 8 7 7 9 8 8 7 7 6 6 6 4
5 5 5 5 5 6 6 7 7 6 6 6 6 6 7 7 6 6 5 6 8 8 8 8 8 8 8 8 8 8 9 10 9 8 8 7 8 9 9 8 7 6 5 5 6
5 5 5 5 6 6 7 7 7 6 6 6 7 5 6 7 7 7 7 8 8 8 8 8 8 8 8 8 9 10 10 9 9 9 8 8 8 8 8 8 8 7 6 6 6
5 5 5 5 6 6 6 6 6 6 6 6 7 6 7 7 8 8 8 8 8 7 7 7 7 8 8 8 8 8 8 9 9 9 8 7 7 8 8 9 9 8 8 7 6
5 5 5 5 5 5 6 5 6 6 5 5 5 6 7 7 8 7 8 8 6 6 7 8 8 8 7 7 7 8 8 9 9 8 8 7 8 8 9 9 8 8 7 7 6
5 5 5 5 5 5 5 4 5 6 6 7 7 7 8 8 6 7 8 7 7 7 7 8 8 7 7 7 7 8 8 8 7 7 7 8 8 9 9 8 8 6 5 5 5
5 5 5 6 6 6 6 6 6 6 5 7 7 7 8 8 7 8 8 8 6 7 7 8 6 8 7 7 6 7 7 6 6 6 9 8 10 10 8 7 7 6 5 5 5
5 5 5 5 5 6 6 6 6 6 6 5 5 6 7 7 5 7 8 8 6 6 7 7 7 7 6 7 6 6 6 7 5 6 7 7 9 10 9 8 6 5 5 4 4
6 6 5 5 6 6 6 6 6 6 7 6 5 6 6 6 6 5 7 7 6 5 7 6 6 6 6 6 5 5 6 6 6 7 7 9 9 10 9 9 8 6 5 5 5
6 6 6 6 6 6 6 5 6 5 7 5 5 5 5 5 5 5 5 6 6 6 6 6 7 6 6 6 5 5 6 7 8 7 7 9 8 9 10 9 8 6 5 4 4
5 5 6 6 6 6 6 6 5 6 6 6 5 5 5 5 5 4 5 5 5 5 7 7 6 5 6 5 6 5 5 6 6 8 8 8 7 8 8 8 7 6 5 4 3
5 5 5 6 6 6 6 5 5 6 6 5 5 5 5 5 5 5 5 6 4 5 6 6 7 5 4 4 4 4 4 5 4 5 5 5 7 9 8 8 7 5 5 3 2
5 5 5 5 5 5 5 4 5 5 4 4 5 5 6 4 5 5 4 4 3 3 3 4 6 5 4 4 4 4 5 4 3 3 3 4 7 8 8 8 6 5 4 3 3
4 4 4 5 5 5 4 4 4 4 4 4 5 5 6 5 5 5 4 3 3 2 3 3 2 4 3 3 4 3 3 3 3 2 4 6 5 6 7 7 6 5 4 3 2
4 3 4 4 4 4 3 3 3 4 4 3 4 4 4 3 4 4 4 2 2 1 2 2 1 3 2 5 4 4 4 4 4 4 3 3 4 5 4 5 4 3 2 2 1
3 3 4 4 3 3 3 3 3 3 3 3 2 2 2 2 3 3 3 2 2 2 1 1 1 0 2 3 3 3 3 4 3 2 2 2 2 3 4 4 4 3 3 2 1
2 3 3 3 3 3 3 3 2 2 3 2 2 3 3 2 2 2 1 1 1 1 1 1 1 1 3 4 3 3 3 3 3 2 2 -0 2 3 3 3 3 2 2 1 -0
3 2 3 3 2 2 2 2 3 3 3 3 2 2 1 2 2 1 1 1 1 1 0 -0 -0 0 1 1 1 1 1 2 2 2 2 2 2 2 2 2 2 1 -0 -0 -1
2 2 2 2 3 2 2 2 2 2 2 2 1 1 1 1 1 1 1 1 0 0 0 -0 -1 -1 -0 -0 -0 -1 -0 1 1 1 1 1 2 2 2 2 1 0 -0 -2 -2
1 2 2 2 2 1 2 2 2 1 1 1 1 1 0 0 0 0 0 -0 -0 -0 -0 -1 -1 -1 -1 -1 -1 -1 -0 1 0 1 1 2 2 2 2 1 0 -2 -2 -2 -2
1 1 1 1 1 1 1 1 1 0 0 1 0 -0 -0 -1 -1 -0 -0 -0 0 -0 -0 -1 -1 -1 -2 -1 -2 -2 1 2 1 1 1 1 1 1 0 -1 -2 -1 -2 -2 -3

GFSSW_700_temp_009.txt.gz
Temp
6 6 6 7 7 7 7 7 7 7 7 7 6 6 6 6 6 7 7 7 7 7 7 7 8 8 8 8 8 9 9 9 9 9 8 8 8 8 8 7 8 8 7 7 6
6 6 7 7 7 7 7 7 7 7 6 6 6 6 7 7 7 6 7 7 7 7 7 7 8 8 8 8 8 9 9 8 8 9 8 8 8 8 8 7 7 7 7 7 6
6 6 7 7 7 7 7 7 7 6 6 6 6 6 6 6 7 6 7 7 7 7 7 7 8 8 8 8 8 8 8 8 8 8 8 8 8 7 7 7 7 6 6 6 7
6 7 7 7 7 7 7 7 6 6 6 6 5 5 5 6 7 6 6 7 7 7 7 7 8 8 8 8 8 8 8 8 8 8 8 8 7 7 7 7 7 7 7 6 7
6 6 7 7 7 7 7 7 7 6 6 5 5 6 6 6 7 7 7 7 6 6 6 7 7 8 8 8 8 8 7 8 8 8 8 8 8 7 7 7 7 7 7 7 6
6 6 6 6 7 7 7 7 6 6 6 6 6 6 6 7 7 6 7 7 6 6 8 8 7 7 7 8 8 8 8 7 8 8 8 8 8 7 8 7 8 8 8 7 7
6 6 6 6 6 7 6 6 6 5 6 6 6 6 7 7 7 7 8 7 8 8 8 8 8 8 8 8 9 9 8 8 8 8 8 8 9 8 8 7 8 8 8 8 8
5 5 5 6 6 6 6 5 6 6 6 6 6 6 8 8 8 8 7 8 8 8 8 8 8 8 8 8 8 8 8 9 9 9 8 8 9 8 8 8 8 8 8 8 8
5 5 5 6 6 6 6 6 6 6 6 6 7 6 7 7 8 8 7 8 9 8 8 8 8 8 7 8 8 8 8 9 9 9 8 8 8 8 8 8 8 8 8 8 7
5 5 5 5 5 5 5 6 6 6 6 6 6 6 6 7 7 8 8 9 8 7 8 8 8 7 8 9 7 7 8 8 8 8 8 8 8 8 9 8 8 8 8 7 6
5 5 5 5 5 5 5 6 6 6 7 7 7 7 7 8 8 8 8 8 8 7 7 8 7 8 8 7 7 7 8 8 8 8 8 8 8 8 8 8 9 8 8 7 7
5 5 5 5 5 5 5 6 6 6 7 6 7 7 7 7 7 8 8 9 8 7 7 8 7 7 8 7 7 7 7 7 8 8 7 8 10 10 8 9 9 9 8 8 7
5 5 5 5 5 6 6 6 5 6 6 6 7 7 7 7 8 8 8 8 8 7 7 7 7 7 7 7 7 7 6 7 6 7 8 8 9 10 9 9 9 8 7 7 7
5 5 5 5 5 6 6 6 6 6 5 6 6 6 7 6 7 7 7 7 6 6 7 6 7 7 7 6 6 7 7 7 7 6 6 7 7 9 9 9 8 7 6 6 6
5 5 5 5 6 6 6 6 6 6 5 6 6 6 6 6 6 6 6 7 7 7 7 6 7 7 7 7 6 6 5 7 7 7 7 8 8 8 8 8 7 6 5 5 4
5 5 5 6 6 6 6 6 6 5 5 6 5 5 5 5 6 5 5 6 6 7 6 6 6 7 6 6 5 5 5 7 8 8 5 6 7 8 8 8 7 5 5 5 5
5 5 5 6 6 6 6 6 5 6 6 5 5 5 5 5 5 5 5 5 6 6 6 6 6 6 6 6 6 5 5 5 4 3 2 6 6 8 7 7 7 6 6 5 4
5 5 5 5 6 6 6 5 5 6 5 5 5 5 5 5 5 5 5 4 5 5 5 5 5 5 4 4 4 4 4 4 1 -0 2 5 6 7 7 6 5 4 4 4 3
5 5 5 5 5 5 5 5 4 4 5 5 5 5 5 5 5 5 4 4 4 4 4 4 5 5 4 4 4 4 4 4 3 3 2 4 6 7 6 6 6 3 3 3 2
4 4 4 5 5 5 4 4 4 4 5 5 5 5 5 4 5 5 4 3 2 2 3 2 2 4 4 4 4 3 3 3 3 -2 0 3 4 5 6 5 5 4 3 2 2
4 4 4 4 4 4 3 4 4 4 4 4 4 4 4 4 4 4 3 2 2 2 2 2 1 4 4 4 3 3 3 3 2 2 0 -1 2 4 4 4 3 3 3 1 1
3 3 4 4 4 3 3 3 3 3 3 4 4 4 3 3 3 3 3 2 2 2 1 1 1 1 4 4 3 3 2 2 2 0 1 1 1 3 4 3 2 2 1 1 1
3 3 3 4 3 3 3 3 4 2 3 2 3 3 3 2 2 2 2 1 1 1 1 1 1 0 3 3 3 2 3 2 1 1 0 -0 1 2 2 2 2 2 2 1 1
3 3 3 3 3 3 3 3 3 3 3 3 3 2 1 2 1 1 1 1 1 1 0 0 0 0 1 1 -0 -0 -0 1 -0 -1 -1 -1 -0 1 1 2 1 1 1 1 0
2 2 2 2 2 2 2 2 2 2 2 2 1 1 1 1 1 1 1 1 1 1 0 -0 -0 -0 -0 -1 -1 -1 -1 0 -1 -0 -1 0 -0 1 1 0 0 -0 0 1 -0
2 2 2 2 2 2 2 2 2 2 2 1 1 1 0 0 0 -0 0 0 0 1 0 -0 -1 -1 -1 0 -1 -1 1 1 1 1 0 1 0 1 -0 0 -0 -0 -0 -1 -2
1 2 2 2 2 2 1 1 1 1 1 1 1 1 0 0 0 0 0 0 0 1 1 -1 -1 -1 -2 -1 -2 -1 2 1 0 0 0 -0 -1 -1 -1 -2 -2 -2 -2 -3 -3

GFSSW_700_temp_012.txt.gz
Temp
5 6 6 6 6 6 7 7 6 6 6 6 6 6 6 6 7 7 7 7 7 7 7 8 8 8 8 8 9 9 8 8 8 8 8 8 8 7 7 7 7 7 7 7 6
5 6 6 6 6 7 7 6 6 6 6 6 6 6 7 7 7 7 7 7 7 7 8 8 8 8 8 8 8 9 9 8 8 8 8 8 8 8 7 7 7 7 6 6 6
6 6 6 7 7 7 6 6 6 6 6 6 6 7 7 7 7 6 6 7 7 7 8 8 8 8 8 8 8 8 9 8 8 9 9 8 7 7 7 7 7 6 6 6 6
6 6 7 7 6 6 6 6 6 6 6 6 6 6 7 7 7 7 7 7 7 8 8 8 8 8 8 8 8 8 8 9 9 9 9 8 8 7 7 7 7 7 7 7 7
6 6 6 6 6 5 6 6 6 6 6 6 6 7 7 7 7 7 7 8 8 8 8 8 8 8 8 7 7 8 8 8 8 9 9 9 8 7 8 7 7 7 8 8 8
6 6 6 5 5 5 6 6 6 6 6 6 7 8 8 8 7 8 8 8 8 8 8 8 8 8 8 8 8 8 8 8 8 8 8 8 8 8 8 7 8 8 8 8 8
5 5 5 5 6 6 6 6 6 6 6 6 7 7 7 8 8 8 9 9 8 8 8 8 8 8 8 8 8 8 8 8 8 8 8 8 8 8 8 7 7 7 8 8 7
5 5 5 5 5 6 6 6 6 6 6 6 6 7 7 8 9 9 9 9 9 9 8 8 8 8 8 8 8 8 8 8 8 8 7 7 8 8 8 8 8 7 8 8 7
4 5 5 5 5 6 6 6 6 6 6 6 7 7 8 8 8 9 9 9 8 8 8 8 8 8 8 8 8 8 8 8 8 8 7 7 8 8 8 8 8 8 8 7 7
4 4 5 5 5 6 6 6 6 6 6 6 7 7 8 8 9 9 9 8 8 8 8 8 7 7 7 8 7 7 7 8 8 8 8 8 8 8 8 8 8 8 8 8 7
5 5 5 5 5 6 6 5 6 6 6 6 7 7 7 8 8 8 8 8 8 8 8 7 7 7 7 7 7 7 7 7 7 8 8 8 8 9 8 8 8 8 8 8 7
5 5 5 5 6 6 6 6 6 6 7 6 7 7 7 7 7 7 8 8 7 7 7 7 7 7 7 6 6 7 7 7 7 7 7 8 9 10 10 8 8 8 8 7 7
5 5 5 5 5 5 6 6 6 6 6 6 6 7 7 7 7 7 8 8 7 7 7 7 7 7 7 7 7 6 6 6 6 7 7 7 8 8 8 8 8 8 8 7 7
5 5 5 5 6 6 6 6 6 5 5 5 6 6 6 6 7 6 7 7 7 7 7 7 7 6 7 6 6 6 6 6 6 6 6 6 6 8 8 8 7 7 7 7 6
5 5 5 6 6 6 6 6 6 6 4 5 6 5 5 5 6 6 6 6 7 7 6 6 6 6 6 5 5 5 6 6 7 7 6 6 6 7 7 7 7 6 6 5 4
5 5 6 6 6 6 6 6 6 5 5 5 5 5 5 5 5 5 5 6 6 6 6 6 6 6 5 5 5 4 5 6 7 7 5 5 5 6 6 6 5 5 4 4 4
5 5 5 5 5 6 6 6 5 6 5 5 5 5 5 5 5 5 5 6 6 6 6 5 5 5 5 5 5 5 5 4 4 2 2 6 6 4 5 5 5 5 4 3 3
5 5 5 5 6 6 6 5 5 5 5 5 5 5 5 5 5 4 5 5 5 5 5 4 5 4 4 4 3 4 4 3 1 -1 2 5 5 5 6 5 4 3 3 3 3
5 5 5 5 5 5 5 5 4 4 5 5 5 5 5 5 5 4 4 4 4 4 4 4 4 4 4 4 4 3 3 3 3 2 1 4 5 6 5 6 5 4 3 3 2
4 4 5 5 5 5 5 5 4 4 5 5 4 5 4 4 4 4 3 2 3 2 3 3 3 4 4 4 3 3 3 3 2 -2 0 2 3 4 5 5 4 3 2 2 2
4 4 4 4 4 4 4 4 4 4 4 4 4 4 4 4 4 3 3 2 2 2 2 2 2 4 4 3 3 3 2 2 1 2 -1 -2 1 3 3 2 2 2 2 2 2
3 4 3 3 4 4 4 4 4 4 4 4 4 4 3 3 3 3 2 2 2 1 2 1 1 1 3 3 3 2 3 1 -1 -0 -1 -1 -0 2 1 2 0 1 0 1 1
3 3 3 3 4 4 4 3 3 3 3 4 4 3 3 3 2 2 2 1 1 1 1 1 1 1 3 2 3 2 3 1 -1 -2 -2 -2 0 2 1 0 -0 -0 0 0 0
3 3 3 3 4 3 3 3 3 3 3 3 3 3 2 2 2 1 1 1 1 1 1 0 0 1 0 0 -1 -0 2 0 -1 -2 -1 -1 -1 1 -1 -1 -1 -1 -1 -1 -1
3 3 3 2 2 2 2 2 2 2 2 2 2 1 2 2 2 2 1 1 1 1 0 -0 -1 -0 -0 -1 -1 -0 -0 0 -0 0 -2 1 -1 -1 -0 -1 -1 -1 -2 -2 -2
3 3 2 2 2 2 2 2 2 2 2 2 1 1 1 1 1 1 1 0 -0 1 0 -1 -1 -1 1 -0 -1 0 1 1 -0 0 0 -1 -1 -1 -1 -1 -2 -2 -2 -2 -2
3 2 2 2 2 2 2 2 2 1 1 1 1 1 0 0 0 0 0 0 1 1 0 -1 -1 -2 -2 -1 -1 -1 1 0 -0 -0 -1 -2 -2 -1 -2 -2 -2 -2 -3 -3 -2

GFSSW_700_temp_015.txt.gz
Temp
5 5 6 6 6 6 6 6 6 6 6 6 6 6 6 6 7 7 6 7 7 7 7 8 8 8 8 9 9 9 9 8 8 8 8 7 8 8 8 7 7 7 7 7 6
5 6 6 6 6 6 6 6 5 6 6 6 6 6 6 7 7 6 7 7 7 7 7 8 8 8 8 8 9 9 9 8 8 7 7 7 7 7 7 7 7 7 6 6 6
6 6 6 6 6 6 6 6 6 6 6 6 6 6 6 7 6 7 7 7 7 7 7 8 8 8 9 8 8 8 9 8 8 8 8 7 7 7 7 7 7 7 6 7 7
6 6 6 6 6 6 6 6 6 6 6 5 5 6 7 7 7 6 7 7 7 7 8 8 8 9 9 9 9 8 8 8 8 8 8 8 8 8 7 8 8 7 7 7 7
5 6 6 6 6 6 5 6 6 5 5 5 6 7 7 7 7 7 7 7 7 8 8 9 9 9 9 8 8 8 8 8 8 8 8 8 7 8 7 8 8 8 7 7 7
5 6 6 6 5 5 6 6 6 5 5 6 7 7 7 8 8 8 8 8 8 8 9 9 9 8 8 8 8 8 8 8 8 8 8 8 7 8 8 8 8 7 7 7 7
5 5 5 5 5 6 6 5 5 5 5 6 7 7 7 8 8 8 8 8 9 9 8 9 8 8 8 8 8 8 8 8 7 8 7 7 7 8 7 7 8 8 7 7 7
5 5 5 5 5 5 5 6 6 6 6 7 7 7 8 8 8 8 9 9 8 9 9 8 8 8 8 8 8 8 8 7 8 8 7 7 9 8 7 7 7 8 8 7 7
4 5 5 5 5 6 6 6 6 6 6 7 7 8 8 8 9 9 9 9 8 8 8 8 8 8 8 8 8 8 7 7 7 7 7 7 8 8 8 8 8 8 8 7 7
4 4 5 5 5 5 6 6 6 6 6 7 7 8 8 8 8 8 8 8 8 8 7 7 7 8 7 7 7 7 7 7 7 7 8 8 8 8 8 8 8 8 8 8 7
4 4 5 5 5 5 6 6 6 6 6 7 7 7 7 8 8 8 8 8 8 8 8 8 7 7 7 7 7 7 6 7 7 7 7 7 8 9 9 9 8 8 8 8 7
4 5 5 5 5 5 6 6 6 6 6 6 6 7 7 7 7 8 8 8 7 7 7 7 7 7 6 7 6 6 6 6 7 6 7 7 8 9 9 8 8 8 8 8 7
4 4 5 5 5 5 6 6 6 6 6 6 6 6 7 7 7 8 8 7 7 7 7 7 6 6 6 6 6 6 6 6 6 6 6 7 8 7 7 7 7 7 7 6 6
4 5 5 5 5 5 6 6 6 6 6 6 6 6 6 6 7 7 7 7 7 6 6 6 6 6 6 6 6 6 6 6 6 5 6 6 6 7 7 6 6 6 6 5 5
4 5 5 5 5 6 6 6 6 6 3 5 5 5 6 6 6 6 6 6 6 6 6 5 6 5 5 5 5 6 6 6 6 6 6 6 6 5 6 6 5 5 5 4 4
5 5 5 5 5 5 5 6 6 6 4 5 5 5 5 5 5 5 6 6 6 6 5 5 5 5 5 5 4 5 6 6 6 6 4 4 4 4 5 5 4 4 4 4 4
5 5 5 5 5 6 5 5 5 5 5 5 5 5 5 5 5 4 5 6 6 6 5 5 5 4 4 4 4 4 6 5 4 2 1 5 4 4 3 3 3 3 3 3 3
5 5 5 5 5 6 5 5 5 5 5 5 5 5 5 4 4 4 4 4 4 4 4 4 4 4 4 4 3 3 3 3 1 -1 1 4 4 4 4 4 2 2 3 2 2
5 5 5 5 5 5 5 5 4 5 5 5 5 5 4 4 4 4 4 3 3 3 3 4 4 4 3 3 3 3 3 3 2 2 0 3 4 4 4 4 3 2 2 2 1
5 5 5 5 5 5 5 5 5 5 5 5 5 4 4 4 4 4 3 3 3 3 3 2 3 4 3 3 3 3 2 2 2 -3 -0 2 3 4 4 3 3 2 1 1 1
4 4 5 5 5 5 4 5 4 4 4 4 5 4 4 4 4 3 3 2 2 2 3 2 2 4 3 3 3 3 2 1 1 1 -1 -3 1 3 3 1 0 1 1 1 1
4 4 4 4 4 4 4 4 4 4 4 4 4 4 4 3 3 3 3 2 2 2 2 2 2 2 2 3 3 1 1 1 -0 -1 -1 -1 -1 2 1 1 1 1 1 1 0
3 4 4 4 4 4 4 4 4 4 4 4 3 3 4 3 3 2 2 2 2 1 1 1 1 1 2 2 3 2 1 0 -1 -1 -1 -2 -1 1 0 -0 -1 -1 -1 -1 -1
3 3 3 3 3 3 4 3 3 3 3 3 3 3 3 3 2 2 2 2 1 1 1 1 0 0 0 1 1 1 1 -0 -1 -2 -2 -1 -1 -1 -1 -1 -1 -2 -2 -2 -2
3 3 3 3 3 3 3 3 3 3 3 3 3 3 3 2 2 1 1 1 1 0 0 -0 -0 -0 -0 -1 -1 0 -0 1 -1 -0 -2 -0 -1 -0 -1 -2 -2 -2 -2 -3 -3
3 3 3 3 3 2 2 2 2 2 2 2 3 2 2 2 1 1 1 1 1 1 -0 -1 -1 -0 -0 -0 -0 1 1 1 1 1 0 -1 -1 -1 -1 -3 -3 -3 -3 -3 -3
3 3 3 3 2 2 2 2 2 2 2 2 1 1 1 1 0 0 0 0 0 0 -0 -1 -1 -2 -2 -1 -1 0 1 1 -0 -0 -1 -1 -1 -2 -3 -3 -3 -2 -3 -3 -3

GFSSW_700_temp_018.txt.gz
Temp
5 5 5 6 6 6 6 6 6 5 5 5 5 6 6 6 5 6 6 6 6 7 7 7 8 9 9 9 9 9 9 8 8 8 8 8 8 7 7 7 7 7 6 6 6
5 5 5 6 6 6 6 6 5 5 5 5 6 6 6 6 6 6 6 6 7 7 7 7 8 9 9 9 9 9 9 8 8 7 7 7 7 7 7 7 7 7 7 7 7
5 5 5 6 6 6 6 5 5 5 5 5 6 6 6 6 6 6 7 7 7 7 7 7 8 8 9 9 8 8 8 8 7 7 7 7 7 7 7 7 7 7 7 7 7
5 5 6 6 6 6 5 5 5 5 5 6 6 6 6 6 6 6 7 7 7 7 7 8 8 9 9 9 8 8 8 7 7 7 7 7 7 7 7 7 7 7 7 7 7
5 5 5 6 6 5 5 5 5 4 5 5 6 6 6 6 6 6 7 7 7 7 7 8 8 9 9 9 8 8 8 8 7 7 7 7 7 7 7 8 7 7 7 7 7
5 5 5 5 5 5 5 4 4 5 5 5 6 7 7 7 7 7 7 7 7 7 8 8 9 8 8 8 8 8 8 8 7 7 7 7 7 7 7 7 7 8 7 7 6
5 5 5 5 5 5 4 5 5 5 5 5 7 7 7 7 7 8 7 7 8 8 8 9 9 8 8 8 8 8 8 8 8 8 7 7 8 8 7 7 7 8 7 7 7
4 4 5 5 5 5 5 5 5 5 5 6 7 7 7 8 8 8 8 8 8 8 8 8 8 8 8 8 8 8 8 7 7 7 7 7 8 7 7 7 7 7 8 7 7
4 4 5 4 5 5 5 6 5 5 6 7 7 7 8 8 8 9 9 8 8 8 8 8 8 8 8 8 8 8 7 7 7 6 6 6 7 8 7 8 8 8 8 8 7
4 4 4 5 5 5 5 5 5 6 7 7 7 8 8 8 8 8 8 8 8 8 8 8 8 8 8 7 7 7 6 6 6 6 7 7 8 8 9 8 8 8 8 8 7
3 4 4 4 5 5 5 5 6 6 6 7 7 7 8 8 8 8 9 8 8 7 7 7 7 7 7 7 6 6 6 6 7 6 7 7 7 8 9 8 8 7 7 8 7
4 4 4 5 5 5 6 6 6 6 7 7 7 7 8 8 8 8 8 8 7 7 7 7 7 6 6 6 6 6 6 6 6 6 6 7 7 7 8 8 7 7 7 7 7
4 4 5 5 5 5 6 6 6 7 7 6 7 7 7 7 7 7 7 7 7 7 7 6 6 6 6 6 6 6 6 6 5 6 6 6 7 7 7 7 7 6 6 5 5
4 4 5 5 5 5 5 6 6 7 7 6 6 6 6 6 6 6 7 7 6 6 6 6 5 5 6 6 6 6 5 5 6 5 6 6 6 6 6 6 6 5 5 4 4
4 4 4 4 5 5 5 6 6 7 2 5 5 5 5 6 6 6 6 6 6 6 6 5 5 5 5 5 5 5 6 6 6 5 5 5 5 4 5 5 4 4 4 3 4
4 4 4 4 5 5 5 6 6 6 4 4 4 5 5 5 5 5 6 6 6 5 5 5 5 5 5 5 5 5 6 6 5 5 4 4 4 3 4 3 3 3 3 3 3
4 4 4 5 5 5 5 5 5 5 5 4 5 5 5 4 5 5 5 6 5 5 5 5 4 4 4 4 4 4 6 5 3 1 1 4 4 2 3 3 3 2 3 3 3
4 4 5 5 5 5 5 5 5 4 4 4 4 4 5 4 4 4 4 4 4 4 4 4 4 4 4 3 3 3 4 3 1 -2 0 4 3 2 3 3 2 2 2 2 2
4 5 5 5 5 5 5 4 4 4 5 4 4 4 4 4 4 4 4 4 3 3 3 3 4 3 3 3 3 3 3 2 2 1 0 3 3 2 3 3 2 2 2 2 1
4 5 5 5 5 5 5 5 5 4 4 4 4 4 4 4 4 4 3 3 3 3 3 3 3 4 3 3 3 3 2 2 2 -4 -1 2 3 3 1 1 1 1 1 0 -1
4 4 5 5 5 5 4 5 4 4 4 4 4 4 4 4 4 4 3 2 2 2 2 2 2 3 3 3 2 2 2 1 1 1 -3 -3 1 2 2 1 1 1 0 -0 -0
3 4 4 4 4 4 4 5 4 4 4 4 4 4 4 4 3 3 3 2 2 2 2 2 2 2 3 2 2 1 1 1 1 -0 -1 -2 -1 1 1 1 0 0 -0 -1 -1
3 4 4 4 4 4 4 4 4 4 4 4 4 4 4 3 3 2 2 2 2 2 1 1 1 1 2 2 1 0 -0 -1 -1 -2 -2 -2 -1 1 0 -1 -1 -1 -2 -2 -2
3 3 4 4 4 4 4 4 4 3 4 4 4 4 3 3 3 2 2 1 1 1 1 0 0 0 0 1 1 0 0 -1 -1 -2 -2 -2 -1 0 -1 -1 -1 -2 -3 -3 -3
3 3 4 3 3 3 3 3 3 3 4 3 3 3 3 2 2 2 1 1 1 1 1 0 -0 0 -0 0 1 1 1 0 -1 -1 -3 0 -1 -1 -1 -2 -2 -3 -3 -3 -3
3 3 3 3 3 3 3 3 3 3 3 3 3 2 2 2 1 1 1 1 1 1 0 -0 0 0 0 1 0 1 1 1 1 1 0 -0 -0 -0 -1 -2 -3 -3 -3 -3 -3
3 3 3 3 3 3 3 3 3 2 2 2 2 2 1 1 1 1 1 1 1 1 0 -0 -0 -1 -0 -0 -0 1 2 1 0 -0 -0 -1 -0 -2 -2 -2 -2 -4 -3 -4 -4

GFSSW_700_temp_021.txt.gz
Temp
5 5 5 5 5 6 6 6 6 6 5 5 6 6 6 5 5 6 6 6 6 7 7 8 8 8 9 9 9 9 8 8 7 7 7 7 7 7 7 6 6 6 6 6 6
5 5 5 5 5 6 6 6 5 5 5 5 5 5 5 5 5 5 6 6 7 7 7 8 8 9 9 9 9 9 8 8 8 7 7 7 7 6 6 7 7 7 7 7 7
5 5 5 5 5 6 6 5 5 5 5 5 5 5 5 5 5 6 6 6 7 7 7 8 8 8 9 9 9 8 8 7 7 7 7 7 6 7 7 7 7 7 7 7 7
5 5 5 5 6 5 5 5 5 5 5 5 5 5 5 5 6 6 6 6 7 7 7 8 8 9 9 9 8 8 7 7 7 7 7 7 7 7 7 7 7 7 7 7 7
5 5 5 5 5 5 5 5 4 5 5 5 5 6 6 6 6 6 6 6 7 7 7 8 8 9 9 8 8 8 7 7 7 7 7 7 7 7 7 7 7 7 7 6 6
5 5 5 5 5 5 5 4 5 4 5 5 6 6 5 6 6 6 7 7 7 7 7 8 8 9 8 8 8 8 7 7 8 7 7 7 7 7 7 7 7 7 7 7 6
5 5 5 5 5 5 4 4 4 4 5 6 5 5 5 6 6 6 7 7 7 7 7 8 8 8 8 8 8 8 7 7 7 8 7 7 7 7 7 7 7 7 7 7 7
4 4 4 4 4 4 4 4 4 4 5 5 6 6 6 6 6 6 7 7 7 7 8 8 8 8 8 8 8 8 7 7 7 7 7 7 7 7 7 8 7 7 7 7 7
4 4 4 4 4 4 4 4 5 5 5 5 6 6 7 7 7 7 8 8 8 8 8 8 8 8 8 8 8 8 7 7 7 6 6 6 7 7 8 8 7 8 8 7 7
3 3 4 4 4 4 4 5 5 5 5 6 6 7 7 7 8 8 8 8 8 8 8 8 8 8 7 8 7 7 7 6 6 6 7 7 7 8 9 8 8 8 8 8 7
3 3 4 4 4 4 5 5 5 5 6 6 7 7 7 8 8 8 8 8 8 8 7 7 7 7 7 7 7 6 6 6 6 6 7 7 7 8 8 8 7 8 8 8 7
3 3 4 4 5 5 5 5 5 6 6 6 7 7 7 8 8 8 8 7 7 7 7 7 7 6 6 6 6 6 6 6 6 6 6 6 7 7 6 7 7 7 7 7 7
3 3 4 4 4 5 5 5 6 6 6 6 6 7 7 7 8 8 8 7 7 7 7 6 6 6 6 6 6 6 6 6 5 6 6 6 6 6 6 6 6 6 6 5 4
3 4 4 4 5 5 5 5 6 6 6 6 6 6 6 7 7 7 7 7 7 6 6 6 5 5 5 5 6 6 5 5 5 5 5 6 6 5 5 5 5 5 4 4 3
3 4 4 4 5 5 5 6 6 6 3 5 5 5 6 7 6 6 6 7 7 6 6 5 5 5 5 5 5 5 5 5 6 5 5 5 5 3 5 5 4 4 4 3 3
4 4 4 4 4 5 5 5 6 6 4 5 5 5 6 6 6 5 6 6 6 5 5 5 5 5 5 4 4 4 5 5 5 4 4 4 4 3 3 3 3 3 3 3 2
4 4 4 4 4 5 5 5 6 6 5 5 4 5 5 5 5 5 5 5 5 5 5 4 4 4 4 4 4 4 5 4 5 4 5 4 4 1 2 2 2 2 2 2 2
4 4 4 4 5 4 5 5 5 4 4 5 4 4 5 4 4 4 4 5 4 5 4 4 4 4 4 4 4 3 4 3 3 3 2 3 2 1 2 2 1 2 2 2 1
4 4 4 4 5 5 5 4 4 4 4 4 4 4 4 4 4 4 4 4 3 4 4 3 4 3 3 3 3 3 3 3 2 1 1 2 2 1 2 2 2 1 1 1 1
4 4 4 4 5 5 4 5 4 4 4 4 4 4 4 4 4 4 3 2 3 3 3 3 3 3 3 2 2 2 2 2 2 1 1 2 1 2 2 1 0 1 1 0 -0
4 4 4 4 4 4 4 5 4 4 4 4 4 4 4 4 4 3 3 2 2 2 3 3 3 3 3 2 2 2 2 1 1 0 0 -1 2 2 1 1 0 0 -0 -1 -2
3 4 4 4 4 4 4 5 4 4 4 4 4 4 4 4 3 3 3 2 2 2 2 3 3 3 2 2 1 1 1 1 1 -0 -0 -1 -0 1 2 1 0 -0 -1 -1 -2
3 4 4 4 4 4 4 4 4 4 4 4 4 4 4 4 3 3 2 2 2 2 2 2 2 2 2 1 0 0 0 -0 -1 -2 -2 -2 0 1 1 -0 -1 -1 -1 -2 -3
3 3 3 4 4 4 4 4 4 4 4 4 4 4 3 3 3 3 2 2 2 1 1 1 1 1 1 1 0 0 0 -1 -2 -2 -2 -1 -0 2 0 -1 -1 -2 -2 -3 -3
2 3 3 3 3 4 4 4 4 4 4 3 3 3 3 3 3 2 2 2 2 2 1 1 1 1 1 1 1 1 1 0 -1 -0 -3 1 -0 1 -1 -2 -1 -2 -2 -2 -3
2 3 3 3 3 3 3 3 3 3 3 3 3 3 3 2 2 2 2 2 2 2 1 1 0 0 1 1 1 1 2 1 0 0 -1 -1 -0 -1 -1 -1 -2 -3 -3 -4 -4
2 3 3 3 3 3 3 3 3 3 3 3 2 2 2 2 2 2 2 2 2 2 1 1 0 -0 -0 -0 0 1 2 2 1 0 -0 -1 -0 -1 -1 -2 -3 -3 -3 -3 -4

GFSSW_700_temp_024.txt.gz
Temp
5 5 5 5 5 5 5 6 6 6 6 5 5 5 5 5 5 5 6 7 7 8 8 8 8 8 8 9 9 9 9 9 8 8 7 7 7 7 6 6 6 6 6 6 6
5 5 5 5 5 5 5 6 6 5 5 5 5 5 5 5 5 6 6 7 7 8 8 8 8 8 8 9 9 9 9 8 7 7 7 7 7 6 6 6 6 6 6 6 6
5 5 5 5 5 6 6 6 5 5 5 5 5 5 5 6 5 6 6 7 7 8 8 8 8 9 9 8 9 8 8 7 7 7 7 7 7 7 7 7 7 6 7 7 7
5 5 5 5 5 5 5 5 5 5 5 5 5 5 6 6 6 6 6 7 7 7 8 8 8 9 8 9 9 9 8 7 7 7 7 7 7 7 7 7 7 7 6 6 6
5 5 5 5 5 5 5 4 4 5 5 5 5 5 6 6 6 6 6 7 7 7 7 8 8 8 8 8 8 7 7 7 7 7 7 7 7 7 7 7 7 7 7 6 6
5 5 4 5 5 5 4 4 4 5 5 5 5 5 5 5 6 6 6 6 7 7 7 8 8 9 9 8 8 8 7 7 7 7 7 7 7 7 7 7 7 7 7 7 6
4 4 4 5 4 4 4 4 4 5 5 5 5 5 5 5 6 6 6 7 7 7 7 7 8 8 8 8 8 8 7 7 7 7 7 7 7 7 7 7 7 7 7 7 6
4 4 4 4 4 4 4 4 4 4 5 5 5 5 5 6 6 6 7 7 7 7 7 7 8 8 8 8 8 7 8 9 7 7 7 7 9 7 7 7 7 7 7 7 7
4 4 4 4 4 4 4 4 4 4 5 5 5 5 6 6 6 7 7 7 7 7 7 8 8 8 8 8 8 8 9 8 7 7 7 7 8 7 8 8 7 7 7 7 7
4 4 3 4 4 4 4 4 4 5 5 5 5 5 6 7 7 8 7 7 7 7 7 7 8 8 8 9 10 8 8 7 7 6 7 6 6 8 8 8 7 7 8 7 7
3 3 4 4 4 4 4 4 5 4 5 5 6 6 7 7 8 8 8 7 7 7 7 7 8 7 7 8 8 7 7 7 6 6 6 6 6 7 7 7 7 7 7 7 7
3 3 3 3 3 4 4 5 5 5 5 6 6 7 7 7 8 8 7 7 7 7 7 7 7 7 7 7 7 6 6 6 6 6 6 6 6 6 6 6 7 7 7 6 6
3 3 3 4 4 4 5 5 5 6 5 5 6 6 7 7 7 7 7 7 7 7 7 7 6 6 6 6 6 6 6 5 5 5 6 5 6 5 6 6 6 6 6 5 5
3 3 3 4 4 4 5 5 6 6 5 5 6 6 7 7 7 7 7 7 7 6 6 6 6 6 5 5 6 6 5 5 5 5 9 6 9 5 4 4 5 5 5 5 4
3 3 4 4 4 5 5 5 6 6 8 5 6 6 6 6 6 6 6 7 7 6 6 6 5 5 5 5 5 4 5 5 6 5 6 6 8 5 4 3 3 4 4 3 3
3 3 4 4 4 5 5 5 6 5 6 5 5 5 5 6 6 6 6 6 6 6 6 6 5 5 5 5 5 5 5 5 5 5 7 6 6 6 5 2 2 3 3 3 2
3 4 4 4 5 5 5 5 5 6 5 4 4 5 5 5 5 5 5 6 5 5 5 4 4 5 5 4 4 4 5 7 7 7 8 4 5 4 1 2 2 2 2 2 2
3 4 4 4 5 5 5 5 5 5 4 5 5 5 5 5 5 5 5 4 5 5 4 5 5 4 4 4 4 3 4 5 5 7 7 4 6 4 2 2 2 2 2 2 1
3 4 4 4 5 5 5 4 4 4 5 5 4 4 4 4 4 4 4 4 4 5 4 4 4 4 4 4 4 3 3 3 2 2 3 5 3 1 2 2 2 1 1 1 1
4 4 4 4 4 4 4 5 5 5 5 5 4 5 4 4 4 4 3 3 3 4 4 4 3 3 3 3 3 3 3 3 3 3 4 7 5 6 3 1 1 1 0 0 0
4 4 4 4 4 4 4 5 5 5 5 4 5 4 4 4 4 4 3 3 3 3 4 4 4 3 3 2 2 2 2 2 2 2 3 3 6 3 2 1 1 0 0 -0 -0
3 3 4 4 4 4 4 5 5 4 4 4 4 4 4 4 4 4 3 3 3 3 3 3 3 2 2 2 2 2 1 1 2 2 1 1 2 2 1 1 1 -0 -0 -1 -2
3 4 4 4 4 4 4 4 4 4 4 4 4 4 4 4 4 3 3 3 3 3 3 3 2 3 2 1 1 1 0 1 0 -0 -0 0 2 1 1 0 -1 -1 -1 -1 -2
3 3 3 3 4 4 4 4 4 4 4 4 4 4 4 4 4 3 3 3 3 3 3 3 2 2 3 3 1 0 0 -1 -1 -1 0 1 1 1 1 0 -1 -1 -1 -2 -2
3 3 3 3 3 4 4 4 4 4 4 4 4 4 4 4 3 3 3 3 2 2 3 2 2 2 2 2 1 -0 0 -0 -1 -1 -1 0 1 1 -0 -1 -1 -1 -2 -2 -3
2 3 3 4 3 3 3 3 4 4 4 4 4 4 3 3 3 3 3 2 2 2 2 2 1 2 2 2 2 1 1 -1 -1 -1 -1 -1 -1 -1 -1 -1 -1 -2 -2 -3 -4
2 3 3 3 3 3 3 3 3 3 3 3 3 3 3 3 3 3 3 3 2 2 2 1 1 0 0 1 0 0 1 1 0 -1 -2 -1 -1 -2 -2 -3 -3 -3 -3 -4 -4

GFSSW_700_temp_027.txt.gz
Temp
5 5 5 6 6 5 5 5 6 6 6 6 5 5 6 6 6 6 6 7 7 7 8 8 8 8 9 9 9 10 11 11 11 10 9 8 8 8 7 7 7 6 7 6 7
5 5 5 5 5 5 5 5 5 6 5 5 5 5 6 6 6 6 7 7 8 8 8 8 8 8 9 9 9 10 12 10 10 10 9 8 9 8 8 7 7 6 6 5 7
5 5 5 5 5 5 5 5 5 5 5 5 5 5 6 5 6 6 7 7 8 8 8 8 9 9 9 9 9 10 10 9 9 9 9 9 8 8 9 9 8 8 6 5 6
5 5 5 5 5 5 5 5 5 5 5 5 5 5 5 6 7 6 7 7 8 8 8 8 8 9 9 9 9 9 9 9 8 8 8 9 8 8 9 9 8 8 6 6 7
5 5 5 5 5 5 5 5 5 5 5 5 5 5 5 6 5 6 7 7 7 8 8 8 9 9 10 9 9 9 8 8 8 7 8 8 8 8 8 8 7 7 6 6 5
5 5 5 5 5 5 5 5 4 4 5 5 5 5 5 6 6 6 7 7 6 7 8 8 8 9 9 9 9 9 8 8 8 8 8 8 8 8 8 8 7 7 7 7 6
5 5 4 5 5 5 4 4 4 4 5 5 5 5 5 5 6 6 7 7 7 7 7 8 8 8 8 8 8 8 8 8 8 8 8 8 9 9 8 7 8 7 7 7 6
5 4 4 5 4 4 4 4 4 4 5 5 5 5 5 6 7 7 7 7 7 7 8 8 8 8 9 8 8 9 9 10 8 8 8 8 11 9 8 7 8 8 7 7 7
4 4 4 4 4 4 3 4 4 5 5 5 5 5 6 7 7 7 7 6 7 7 7 8 7 8 8 9 9 10 11 11 9 8 8 9 10 9 7 8 8 8 8 7 7
4 4 4 4 4 3 4 4 4 5 5 5 6 5 6 5 7 7 7 7 6 7 7 7 8 9 9 10 12 11 11 9 10 8 8 9 9 8 7 8 7 7 7 7 6
3 4 4 4 3 3 4 4 5 5 4 5 5 5 6 7 7 7 7 7 7 7 8 8 9 10 9 8 8 9 9 10 9 7 8 8 8 7 7 7 7 7 6 6 5
3 3 3 3 3 4 4 3 5 5 5 5 6 6 6 6 6 6 7 7 7 9 8 8 9 7 7 7 8 8 9 9 8 7 8 8 8 7 6 6 6 6 5 5 6
3 3 3 3 4 4 4 4 5 5 5 5 5 5 7 5 6 7 7 7 8 8 8 9 7 7 7 7 8 8 8 8 7 7 7 8 8 7 6 5 5 4 4 3 3
3 3 3 4 4 4 4 5 5 6 7 5 5 6 6 6 6 7 7 7 7 8 8 7 7 6 7 7 6 8 6 6 6 7 10 8 11 8 6 5 4 3 3 3 2
3 3 3 3 4 4 5 5 5 6 9 6 5 6 6 6 6 7 7 6 7 7 7 7 6 6 7 6 6 7 6 5 6 7 9 9 9 8 7 6 4 3 2 4 4
3 3 3 4 4 5 5 5 5 6 8 6 5 5 5 5 7 6 6 7 6 6 7 6 6 5 5 5 6 6 5 6 6 8 9 10 9 8 7 6 4 2 1 3 3
3 3 3 4 4 5 5 5 6 7 6 6 6 5 6 5 5 5 5 5 7 7 7 6 6 5 5 6 5 6 7 9 9 9 9 8 8 7 4 4 3 2 1 3 2
3 3 4 4 5 5 5 4 7 6 7 6 6 6 6 5 5 5 6 6 5 6 7 8 7 5 5 5 5 5 6 7 7 8 10 7 8 7 3 2 2 1 2 2 2
3 3 4 4 4 5 5 5 7 6 6 5 5 6 5 5 5 5 5 4 5 6 6 7 6 4 5 4 5 5 6 4 5 4 5 8 6 4 3 2 1 1 1 0 1
3 3 4 4 4 5 4 6 5 5 5 6 7 6 7 6 6 6 5 4 4 5 5 4 6 4 4 5 4 4 4 5 5 4 6 9 8 8 3 2 1 1 1 -0 -0
3 2 4 4 4 4 4 5 5 5 5 5 5 5 6 5 5 5 4 4 4 5 4 4 4 5 4 4 5 5 5 4 4 4 5 6 7 5 4 4 3 2 0 -1 -1
3 3 4 4 3 3 4 4 4 5 5 5 4 5 5 4 5 4 4 3 4 5 3 5 3 4 5 3 4 3 4 4 4 4 4 2 3 3 3 2 1 1 -0 -1 -2
2 3 4 4 3 3 4 4 4 4 4 4 5 4 4 4 4 3 3 4 4 4 3 4 3 5 6 3 2 3 3 2 2 1 1 2 3 3 2 1 0 -0 -0 -1 -2
2 2 3 3 3 4 3 4 4 5 5 5 5 5 4 4 4 3 4 4 4 4 4 4 2 3 4 4 3 3 3 3 2 1 2 2 3 3 3 1 1 1 -0 -1 -2
2 2 3 3 3 3 3 3 3 4 4 4 4 3 3 3 3 3 2 4 4 4 4 3 2 2 2 3 3 3 2 2 2 2 2 2 2 2 2 1 -0 -1 -2 -2 -2
2 3 3 4 3 3 3 3 4 4 4 3 3 3 3 3 3 3 2 2 2 3 1 2 1 2 2 1 2 2 2 2 2 1 1 1 1 1 0 -0 -1 -2 -2 -3 -4
3 3 3 4 3 3 3 3 3 3 4 3 3 3 3 2 3 3 3 3 2 1 1 1 2 1 1 2 1 2 1 2 1 1 1 0 0 0 -0 -2 -2 -3 -3 -3 -4

GFSSW_700_temp_030.txt.gz
Temp
6 6 6 5 6 6 6 5 5 6 6 6 6 6 5 6 6 6 6 7 7 7 7 8 8 8 9 9 10 10 12 12 11 11 10 9 9 9 9 8 8 7 7 7 7
5 5 5 5 5 5 6 6 5 6 6 5 5 5 5 6 6 6 6 7 7 7 8 8 8 9 9 9 10 10 11 11 11 10 10 9 9 8 8 8 7 7 6 7 7
5 5 5 5 5 5 6 5 5 5 5 5 5 5 6 6 6 6 7 7 7 8 8 7 8 9 9 10 10 11 10 10 10 10 10 9 9 9 9 9 8 7 6 8 8
5 5 5 5 5 5 5 5 5 5 5 5 5 5 6 6 7 7 7 7 7 8 9 8 9 9 10 10 10 10 10 10 9 9 9 9 9 9 9 9 8 8 7 6 6
5 5 5 5 5 5 5 5 5 5 5 5 5 5 6 6 6 6 7 7 8 8 8 9 9 10 10 10 10 10 9 9 8 8 9 9 9 9 9 9 8 8 7 6 5
4 5 5 5 5 5 5 5 5 4 5 5 5 5 6 5 6 6 7 7 7 8 8 9 9 10 10 10 10 9 9 9 8 8 9 9 9 9 9 8 8 7 7 7 6
4 4 4 5 5 5 5 4 4 4 5 5 5 6 5 5 6 6 7 7 7 7 8 8 9 9 10 9 9 9 9 9 9 9 9 8 9 9 9 8 8 8 7 7 7
4 4 4 5 5 5 4 4 4 4 5 5 5 5 5 6 6 7 6 7 7 7 7 8 8 9 9 9 9 9 10 10 9 9 9 9 10 10 9 8 8 8 8 8 7
4 4 4 5 4 4 4 4 4 4 5 5 5 5 6 7 7 6 7 7 7 8 8 8 8 9 9 9 10 10 11 11 10 9 9 9 10 10 9 8 8 8 9 8 7
4 4 4 4 4 3 4 4 4 5 5 5 6 5 6 6 7 8 8 8 7 8 8 8 8 9 9 10 11 11 12 11 11 9 9 10 10 9 8 8 8 9 9 8 7
4 4 4 4 3 4 4 4 4 5 5 5 6 6 6 7 8 7 8 8 7 7 8 8 9 10 10 9 9 10 11 11 11 9 8 10 10 9 8 8 8 7 7 7 7
3 3 3 4 3 4 4 4 5 5 5 5 6 6 7 6 6 7 7 7 7 8 9 9 9 9 8 9 9 10 10 10 10 9 8 9 10 8 7 7 7 6 6 6 6
3 3 3 3 3 4 3 4 5 6 5 5 5 6 7 6 7 6 7 7 8 9 9 9 8 9 9 8 9 10 9 9 8 8 8 8 9 8 7 6 6 5 4 4 4
3 3 3 3 3 3 4 5 5 6 7 6 6 6 6 6 6 6 7 7 8 9 9 8 7 7 8 8 7 9 7 7 7 8 9 9 10 8 7 6 5 4 4 3 3
3 3 3 3 3 4 4 5 6 6 8 6 6 7 6 6 7 7 7 7 8 8 8 8 7 7 8 7 7 7 7 7 7 7 8 10 9 10 7 6 5 3 2 2 2
3 3 3 3 3 4 4 5 5 6 7 6 6 6 6 6 6 6 7 7 7 7 8 7 7 6 6 7 7 7 7 7 8 8 8 9 10 8 8 7 5 3 2 1 2
3 3 3 3 3 4 5 5 5 7 7 7 7 7 7 6 7 7 7 7 8 8 8 7 7 6 6 7 7 7 7 8 7 8 8 9 9 8 7 6 5 3 2 1 1
2 3 3 3 4 4 5 5 6 7 8 7 7 7 7 6 6 6 7 7 6 7 9 8 7 6 6 6 6 7 7 7 6 6 7 8 9 6 6 6 5 3 2 2 0
2 3 3 3 4 4 5 5 8 7 7 7 7 7 7 6 6 7 6 5 5 6 7 8 7 6 6 5 5 6 6 6 6 6 5 7 7 5 3 3 2 2 1 1 0
3 3 3 3 4 4 5 6 6 6 7 7 7 8 8 7 7 7 6 5 5 6 6 6 7 5 5 5 5 5 5 6 6 4 5 8 8 5 4 3 2 2 2 1 0
3 3 4 4 4 4 4 6 5 6 5 7 7 7 8 7 7 7 6 5 4 6 5 5 6 6 5 5 5 5 6 5 6 6 5 4 6 5 4 4 4 3 2 1 -0
2 2 3 4 4 4 5 5 5 6 6 6 6 7 7 6 6 6 5 5 5 5 4 5 4 5 6 5 5 4 4 4 4 4 4 4 4 4 3 3 2 1 1 0 -1
3 2 3 4 3 4 4 4 4 4 5 5 5 5 5 6 5 5 4 5 5 5 5 5 4 5 5 4 4 4 4 4 3 2 1 2 3 4 3 2 1 0 -0 -0 -1
2 2 3 3 3 4 4 4 4 4 4 4 4 4 5 5 5 4 4 5 5 5 5 5 4 4 5 5 4 4 4 4 4 3 3 2 2 3 3 1 -0 -0 -0 -0 -1
3 3 3 3 3 4 4 5 4 4 4 4 4 4 5 4 4 4 3 5 4 5 5 4 3 3 3 3 3 3 3 3 3 3 3 3 3 3 1 1 0 -1 -1 -1 -1
2 2 3 3 3 4 4 5 5 5 4 4 4 4 4 4 4 4 3 3 3 4 3 3 2 3 4 3 2 3 2 2 3 3 3 2 2 1 1 0 -0 -1 -0 -1 -2
2 2 3 4 3 3 3 4 5 4 4 4 4 4 4 3 3 4 3 3 2 2 1 2 2 2 2 2 2 3 2 2 2 2 2 1 1 1 -1 -1 -1 -1 -1 -2 -2